Nur fliegen ist schöner ....

Willkommen beim Flugservice Bautzen GmbH

Wir sind eine nach europäischen Richtlinien zugelassene Flugschule und lizenziertes Luftfahrtunternehmen. Bei uns können sie nicht nur Rundflüge über die Oberlausitz oder Sachsen buchen, sondern in unserer Flugschule selber das Fliegen erlernen. Erfahrene Fluglehrer stehen Ihnen dabei zur Seite.

Wir bieten Ihnen außerdem spezielle Flüge zur Vermessung oder Fotoflüge für Luftbildaufnahmen an. In Zusammenarbeit mit dem Fallschirmsportclub Dresden und dem Cottbuser Fallschirmsportclub setzen wir am Flugplatz Bautzen und Neuhausen Fallschirmspringer ab.
Schauen Sie sich in Ruhe bei uns um und wenn Sie Fragen haben oder weitere Informationen benötigen, scheuen Sie sich nicht Kontakt mit uns aufzunehmen.

Gutscheine für Rundflüge und Tandemsprünge können Sie ganz leicht auch online in unserem Shop erwerben.

Terminkalender

Letzter Monat März 2023 Nächster Monat
Mo Di Mi Do Fr Sa So
week 9 1 2 3 4 5
week 10 6 7 8 9 10 11 12
week 11 13 14 15 16 17 18 19
week 12 20 21 22 23 24 25 26
week 13 27 28 29 30 31

Flugwetterinfo

[Quelle: ADDS]
METAR
EDDC 022150Z AUTO VRB01KT 6000 NCD M01/M02 Q1021 =
AMD EDDC 022018Z 0220/0318 05005KT CAVOK BECMG 0221/0223 34004KT 1500 BR BKN002 TEMPO 0222/0308 0300 FZFG OVC001 TEMPO 0308/0312 7000 BKN010
TAF
AMD EDDC 022018Z 0220/0318 05005KT CAVOK BECMG 0221/0223 34004KT 1500 BR BKN002 TEMPO 0222/0308 0300 FZFG OVC001 TEMPO 0308/0312 7000 BKN010 =
SR / SS: 05:02 / 17:15 UTC (EDAB Flugplatz Bautzen 2023-03-21)

Öffnungszeiten

des Flugplatzes Bautzen erfahren Sie hier:

flugplatz bautzen logo
Flugservice Bautzen GmbH, Kornmarkt 34, 02625 Bautzen  Telefon: +49 (3591) 211105, Mobil: +49 160 5371164, E-Mail:  flugservice(at)fsbautzen.de
Wir benutzen Cookies
Wir nutzen nur Cookies auf unserer Website, die essenziell für den Betrieb der Seite sind. Sie können selbst entscheiden, ob Sie die Cookies zulassen möchten. Bitte beachten Sie, dass bei einer Ablehnung womöglich nicht mehr alle Funktionalitäten der Seite zur Verfügung stehen.